TimeEST,TemperatureF,Dew PointF,Humidity,Sea Level PressureIn,VisibilityMPH,Wind Direction,Wind SpeedMPH,Gust SpeedMPH,PrecipitationIn,Events,Conditions,WindDirDegrees,DateUTC
12:15 AM,33.8,32.0,93,29.58,9.0,NW,13.8,19.6,N/A,,Overcast,310,2013-03-04 05:15:00
12:55 AM,35.6,30.2,81,29.58,10.0,NW,15.0,20.7,N/A,,Overcast,310,2013-03-04 05:55:00
1:15 AM,35.6,28.4,75,29.58,10.0,WNW,16.1,20.7,N/A,,Overcast,300,2013-03-04 06:15:00
1:35 AM,35.6,28.4,75,29.58,10.0,NW,15.0,-,N/A,,Overcast,310,2013-03-04 06:35:00
1:55 AM,35.6,28.4,75,29.58,10.0,NW,16.1,23.0,N/A,,Overcast,320,2013-03-04 06:55:00
2:15 AM,35.6,28.4,75,29.58,10.0,NW,18.4,24.2,N/A,,Overcast,310,2013-03-04 07:15:00
2:35 AM,35.6,26.6,70,29.58,10.0,NW,18.4,25.3,N/A,,Overcast,320,2013-03-04 07:35:00
2:55 AM,35.6,28.4,75,29.58,10.0,NW,16.1,23.0,N/A,,Overcast,310,2013-03-04 07:55:00
3:35 AM,35.6,28.4,75,29.58,10.0,NW,19.6,25.3,N/A,,Overcast,310,2013-03-04 08:35:00
3:55 AM,35.6,28.4,75,29.58,10.0,NW,19.6,26.5,N/A,,Overcast,310,2013-03-04 08:55:00
4:15 AM,33.8,26.6,75,29.58,10.0,WNW,21.9,26.5,N/A,,Mostly Cloudy,300,2013-03-04 09:15:00
4:35 AM,33.8,26.6,75,29.58,10.0,WNW,19.6,26.5,N/A,,Mostly Cloudy,300,2013-03-04 09:35:00
4:55 AM,33.8,26.6,75,29.59,10.0,WNW,20.7,28.8,N/A,,Overcast,300,2013-03-04 09:55:00
5:15 AM,33.8,26.6,75,29.59,10.0,NW,19.6,26.5,N/A,,Overcast,310,2013-03-04 10:15:00
5:35 AM,33.8,26.6,75,29.59,10.0,WNW,20.7,27.6,N/A,,Overcast,300,2013-03-04 10:35:00
6:15 AM,33.8,26.6,75,29.60,10.0,WNW,18.4,29.9,N/A,,Overcast,300,2013-03-04 11:15:00
6:35 AM,33.8,26.6,75,29.60,10.0,WNW,20.7,26.5,N/A,,Mostly Cloudy,300,2013-03-04 11:35:00
6:55 AM,33.8,26.6,75,29.61,10.0,WNW,21.9,29.9,N/A,,Mostly Cloudy,300,2013-03-04 11:55:00
7:15 AM,33.8,26.6,75,29.61,10.0,NW,20.7,27.6,N/A,,Mostly Cloudy,310,2013-03-04 12:15:00
7:35 AM,33.8,24.8,70,29.61,10.0,WNW,23.0,28.8,N/A,,Mostly Cloudy,300,2013-03-04 12:35:00
7:55 AM,33.8,24.8,70,29.61,10.0,WNW,19.6,29.9,N/A,,Mostly Cloudy,300,2013-03-04 12:55:00
8:15 AM,33.8,24.8,70,29.61,10.0,WNW,23.0,28.8,N/A,,Mostly Cloudy,300,2013-03-04 13:15:00
8:35 AM,33.8,24.8,70,29.61,10.0,WNW,23.0,31.1,N/A,,Mostly Cloudy,300,2013-03-04 13:35:00
9:15 AM,33.8,23.0,65,29.60,10.0,WNW,21.9,28.8,N/A,,Mostly Cloudy,300,2013-03-04 14:15:00
9:35 AM,35.6,24.8,65,29.60,10.0,WNW,19.6,27.6,N/A,,Scattered Clouds,300,2013-03-04 14:35:00
9:55 AM,35.6,24.8,65,29.60,10.0,WNW,20.7,28.8,N/A,,Partly Cloudy,300,2013-03-04 14:55:00
10:15 AM,35.6,24.8,65,29.60,10.0,WNW,23.0,31.1,N/A,,Clear,300,2013-03-04 15:15:00
10:35 AM,35.6,24.8,65,29.59,10.0,WNW,21.9,28.8,N/A,,Clear,300,2013-03-04 15:35:00
10:55 AM,35.6,24.8,65,29.59,10.0,NW,20.7,28.8,N/A,,Clear,310,2013-03-04 15:55:00
11:15 AM,37.4,24.8,60,29.59,10.0,NW,18.4,26.5,N/A,,Clear,310,2013-03-04 16:15:00
12:15 PM,37.4,24.8,60,29.58,10.0,WNW,20.7,24.2,N/A,,Clear,300,2013-03-04 17:15:00
12:35 PM,39.2,23.0,52,29.58,10.0,NW,18.4,25.3,N/A,,Clear,310,2013-03-04 17:35:00
12:55 PM,37.4,23.0,56,29.57,10.0,WNW,18.4,24.2,N/A,,Mostly Cloudy,300,2013-03-04 17:55:00
1:15 PM,39.2,24.8,56,29.57,10.0,WNW,17.3,23.0,N/A,,Overcast,300,2013-03-04 18:15:00
1:55 PM,39.2,26.6,61,29.57,10.0,WNW,17.3,25.3,N/A,,Overcast,300,2013-03-04 18:55:00
2:15 PM,39.2,24.8,56,29.57,10.0,WNW,20.7,27.6,N/A,,Overcast,300,2013-03-04 19:15:00
2:55 PM,37.4,26.6,65,29.57,10.0,WNW,19.6,25.3,N/A,,Overcast,300,2013-03-04 19:55:00
3:15 PM,37.4,24.8,60,29.57,10.0,NW,20.7,28.8,N/A,,Overcast,310,2013-03-04 20:15:00
3:35 PM,37.4,24.8,60,29.57,10.0,WNW,21.9,27.6,N/A,,Mostly Cloudy,300,2013-03-04 20:35:00
3:55 PM,37.4,26.6,65,29.57,10.0,NW,19.6,28.8,N/A,,Overcast,320,2013-03-04 20:55:00
4:15 PM,37.4,26.6,65,29.58,10.0,NW,25.3,32.2,N/A,,Overcast,320,2013-03-04 21:15:00
4:35 PM,37.4,28.4,70,29.58,10.0,NW,20.7,26.5,N/A,,Overcast,310,2013-03-04 21:35:00
4:55 PM,35.6,28.4,75,29.59,10.0,NW,21.9,29.9,N/A,,Overcast,320,2013-03-04 21:55:00
5:15 PM,35.6,30.2,81,29.60,5.0,NW,21.9,27.6,N/A,,Mostly Cloudy,320,2013-03-04 22:15:00
5:55 PM,33.8,30.2,87,29.62,10.0,WNW,25.3,31.1,N/A,,Mostly Cloudy,300,2013-03-04 22:55:00
6:15 PM,35.6,30.2,81,29.63,10.0,NW,23.0,28.8,N/A,,Overcast,310,2013-03-04 23:15:00
6:35 PM,33.8,30.2,87,29.63,5.0,NW,25.3,35.7,N/A,,Overcast,310,2013-03-04 23:35:00
6:55 PM,33.8,30.2,87,29.64,5.0,NW,21.9,33.4,N/A,,Overcast,310,2013-03-04 23:55:00
7:15 PM,33.8,30.2,87,29.64,4.0,NW,20.7,29.9,N/A,,Overcast,310,2013-03-05 00:15:00
7:35 PM,33.8,33.8,100,29.65,4.0,NW,23.0,29.9,N/A,,Overcast,310,2013-03-05 00:35:00
7:55 PM,33.8,30.2,87,29.65,7.0,NW,23.0,31.1,N/A,,Overcast,310,2013-03-05 00:55:00
8:15 PM,33.8,28.4,81,29.66,10.0,NW,23.0,29.9,N/A,,Overcast,310,2013-03-05 01:15:00
8:55 PM,33.8,28.4,81,29.67,10.0,NW,20.7,31.1,N/A,,Overcast,310,2013-03-05 01:55:00
9:35 PM,33.8,28.4,81,29.67,10.0,NW,21.9,29.9,N/A,,Overcast,310,2013-03-05 02:35:00
9:55 PM,33.8,28.4,81,29.67,9.0,NW,21.9,29.9,N/A,,Overcast,310,2013-03-05 02:55:00
10:15 PM,33.8,26.6,75,29.67,10.0,NW,23.0,31.1,N/A,,Overcast,310,2013-03-05 03:15:00
10:35 PM,35.6,26.6,70,29.68,10.0,NW,21.9,28.8,N/A,,Overcast,320,2013-03-05 03:35:00
10:55 PM,35.6,26.6,70,29.68,10.0,NNW,25.3,31.1,N/A,,Overcast,330,2013-03-05 03:55:00
11:15 PM,35.6,26.6,70,29.68,10.0,NNW,23.0,29.9,N/A,,Overcast,330,2013-03-05 04:15:00
11:35 PM,33.8,26.6,75,29.69,10.0,NNW,25.3,32.2,N/A,,Scattered Clouds,330,2013-03-05 04:35:00
11:55 PM,33.8,26.6,75,29.69,10.0,NNW,25.3,31.1,N/A,,Clear,340,2013-03-05 04:55:00